| time (UTC) | temp F | wind direction | speed MPH | gust MPH | rain 1hr in | rain 24hr in | rain mn in | humidity % | barometer mb |
| 20260504231550 | 69 | 331 | 9.0 | 18.0 | 0.00 | 0.00 | 0.00 | 18 | 1011.9 |
| 20260504231043 | 69 | 295 | 7.0 | 19.0 | 0.00 | 0.00 | 0.00 | 19 | 1012.0 |
| 20260504230546 | 69 | 276 | 9.0 | 20.0 | 0.00 | 0.00 | 0.00 | 19 | 1012.1 |
| 20260504230053 | 69 | 301 | 12.0 | 20.0 | 0.00 | 0.00 | 0.00 | 19 | 1012.2 |
| 20260504225543 | 68 | 276 | 6.0 | 19.0 | 0.00 | 0.00 | 0.00 | 19 | 1012.3 |
| 20260504225042 | 68 | 288 | 10.0 | 19.0 | 0.00 | 0.00 | 0.00 | 19 | 1012.2 |
| 20260504224549 | 68 | 274 | 9.0 | 21.0 | 0.00 | 0.00 | 0.00 | 19 | 1012.2 |
| 20260504224043 | 68 | 290 | 12.0 | 21.0 | 0.00 | 0.00 | 0.00 | 19 | 1012.4 |
| 20260504223543 | 68 | 286 | 9.0 | 19.0 | 0.00 | 0.00 | 0.00 | 19 | 1012.4 |
| 20260504223058 | 68 | 321 | 9.0 | 19.0 | 0.00 | 0.00 | 0.00 | 19 | 1012.3 |
| 20260504222543 | 68 | 259 | 11.0 | 19.0 | 0.00 | 0.00 | 0.00 | 18 | 1012.4 |
| 20260504222042 | 68 | 288 | 8.0 | 19.0 | 0.00 | 0.00 | 0.00 | 17 | 1012.6 |
| 20260504221552 | 69 | 269 | 9.0 | 21.0 | 0.00 | 0.00 | 0.00 | 17 | 1012.6 |
| 20260504221042 | 69 | 310 | 10.0 | 21.0 | 0.00 | 0.00 | 0.00 | 17 | 1012.8 |
| 20260504220542 | 69 | 271 | 6.0 | 20.0 | 0.00 | 0.00 | 0.00 | 17 | 1012.6 |
| 20260504220056 | 69 | 286 | 12.0 | 20.0 | 0.00 | 0.00 | 0.00 | 16 | 1012.8 |
| 20260504215543 | 70 | 265 | 10.0 | 18.0 | 0.00 | 0.00 | 0.00 | 16 | 1013.0 |
| 20260504215042 | 70 | 298 | 11.0 | 18.0 | 0.00 | 0.00 | 0.00 | 16 | 1013.0 |
| 20260504214614 | 71 | 292 | 9.0 | 17.0 | 0.00 | 0.00 | 0.00 | 15 | 1013.0 |
| 20260504214043 | 71 | 298 | 7.0 | 15.0 | 0.00 | 0.00 | 0.00 | 15 | 1013.0 |
| 20260504213543 | 71 | 320 | 7.0 | 23.0 | 0.00 | 0.00 | 0.00 | 14 | 1012.8 |
| 20260504213055 | 70 | 231 | 9.0 | 23.0 | 0.00 | 0.00 | 0.00 | 15 | 1013.0 |
| 20260504212543 | 70 | 299 | 11.0 | 21.0 | 0.00 | 0.00 | 0.00 | 14 | 1013.2 |
| 20260504212044 | 70 | 294 | 9.0 | 21.0 | 0.00 | 0.00 | 0.00 | 15 | 1013.1 |
| 20260504211552 | 69 | 302 | 10.0 | 18.0 | 0.00 | 0.00 | 0.00 | 14 | 1013.3 |
| 20260504211046 | 69 | 270 | 10.0 | 17.0 | 0.00 | 0.00 | 0.00 | 14 | 1013.3 |
| 20260504210542 | 69 | 319 | 9.0 | 19.0 | 0.00 | 0.00 | 0.00 | 14 | 1013.4 |
| 20260504210055 | 69 | 256 | 10.0 | 24.0 | 0.00 | 0.00 | 0.00 | 14 | 1013.6 |
| 20260504205544 | 70 | 259 | 14.0 | 24.0 | 0.00 | 0.00 | 0.00 | 13 | 1013.7 |
| 20260504205043 | 70 | 250 | 8.0 | 18.0 | 0.00 | 0.00 | 0.00 | 15 | 1013.6 |
| 20260504204601 | 70 | 298 | 10.0 | 20.0 | 0.00 | 0.00 | 0.00 | 15 | 1013.9 |
| 20260504204053 | 69 | 268 | 11.0 | 23.0 | 0.00 | 0.00 | 0.00 | 15 | 1013.9 |
| 20260504203546 | 69 | 219 | 11.0 | 23.0 | 0.00 | 0.00 | 0.00 | 17 | 1014.0 |
| 20260504203046 | 69 | 205 | 9.0 | 18.0 | 0.00 | 0.00 | 0.00 | 17 | 1013.9 |
| 20260504202543 | 69 | 294 | 11.0 | 22.0 | 0.00 | 0.00 | 0.00 | 17 | 1014.1 |
| 20260504202043 | 69 | 275 | 8.0 | 22.0 | 0.00 | 0.00 | 0.00 | 18 | 1014.1 |
| 20260504201600 | 69 | 234 | 14.0 | 22.0 | 0.00 | 0.00 | 0.00 | 17 | 1014.2 |
| 20260504201047 | 70 | 217 | 8.0 | 17.0 | 0.00 | 0.00 | 0.00 | 18 | 1014.2 |
| 20260504200543 | 70 | 286 | 6.0 | 22.0 | 0.00 | 0.00 | 0.00 | 19 | 1014.1 |
| 20260504200051 | 70 | 285 | 11.0 | 22.0 | 0.00 | 0.00 | 0.00 | 17 | 1014.2 |
| 20260504195542 | 70 | 244 | 9.0 | 19.0 | 0.00 | 0.00 | 0.00 | 18 | 1014.2 |
| 20260504195042 | 70 | 265 | 10.0 | 18.0 | 0.00 | 0.00 | 0.00 | 19 | 1014.1 |
| 20260504194600 | 70 | 236 | 8.0 | 22.0 | 0.00 | 0.00 | 0.00 | 19 | 1014.3 |
| 20260504194043 | 69 | 245 | 12.0 | 22.0 | 0.00 | 0.00 | 0.00 | 20 | 1014.3 |
| 20260504193543 | 70 | 246 | 11.0 | 19.0 | 0.00 | 0.00 | 0.00 | 20 | 1014.2 |
| 20260504193050 | 70 | 220 | 8.0 | 18.0 | 0.00 | 0.00 | 0.00 | 20 | 1014.3 |
| 20260504192543 | 69 | 245 | 9.0 | 23.0 | 0.00 | 0.00 | 0.00 | 19 | 1014.6 |
| 20260504192042 | 70 | 202 | 12.0 | 23.0 | 0.00 | 0.00 | 0.00 | 20 | 1014.3 |
| 20260504191559 | 70 | 266 | 8.0 | 20.0 | 0.00 | 0.00 | 0.00 | 20 | 1014.3 |
| 20260504191043 | 70 | 229 | 7.0 | 20.0 | 0.00 | 0.00 | 0.00 | 21 | 1014.4 |
| 20260504190544 | 70 | 292 | 9.0 | 18.0 | 0.00 | 0.00 | 0.00 | 21 | 1014.5 |
| 20260504190110 | 69 | 254 | 10.0 | 19.0 | 0.00 | 0.00 | 0.00 | 21 | 1014.5 |
| 20260504185545 | 69 | 176 | 10.0 | 19.0 | 0.00 | 0.00 | 0.00 | 22 | 1014.6 |
| 20260504185042 | 68 | 207 | 9.0 | 19.0 | 0.00 | 0.00 | 0.00 | 22 | 1014.9 |
| 20260504184608 | 68 | 253 | 10.0 | 19.0 | 0.00 | 0.00 | 0.00 | 21 | 1015.0 |
| 20260504184043 | 69 | 195 | 8.0 | 16.0 | 0.00 | 0.00 | 0.00 | 22 | 1015.0 |
| 20260504183542 | 69 | 242 | 9.0 | 22.0 | 0.00 | 0.00 | 0.00 | 21 | 1015.0 |
| 20260504183046 | 69 | 211 | 10.0 | 22.0 | 0.00 | 0.00 | 0.00 | 21 | 1015.2 |
| 20260504182543 | 69 | 216 | 7.0 | 19.0 | 0.00 | 0.00 | 0.00 | 22 | 1015.1 |
| 20260504182042 | 69 | 292 | 11.0 | 19.0 | 0.00 | 0.00 | 0.00 | 22 | 1015.2 |
| 20260504181551 | 70 | 186 | 6.0 | 14.0 | 0.00 | 0.00 | 0.00 | 22 | 1015.1 |
| 20260504181043 | 70 | 258 | 6.0 | 14.0 | 0.00 | 0.00 | 0.00 | 22 | 1015.3 |
| 20260504180543 | 69 | 273 | 8.0 | 16.0 | 0.00 | 0.00 | 0.00 | 21 | 1015.3 |
| 20260504180053 | 69 | 238 | 7.0 | 16.0 | 0.00 | 0.00 | 0.00 | 22 | 1015.3 |
| 20260504175544 | 69 | 186 | 6.0 | 14.0 | 0.00 | 0.00 | 0.00 | 23 | 1015.3 |
| 20260504175043 | 68 | 157 | 7.0 | 14.0 | 0.00 | 0.00 | 0.00 | 24 | 1015.6 |
| 20260504174551 | 68 | 260 | 6.0 | 15.0 | 0.00 | 0.00 | 0.00 | 24 | 1015.7 |
| 20260504174043 | 67 | 175 | 6.0 | 18.0 | 0.00 | 0.00 | 0.00 | 24 | 1015.7 |
| 20260504173542 | 68 | 248 | 8.0 | 18.0 | 0.00 | 0.00 | 0.00 | 24 | 1015.6 |
| 20260504173051 | 68 | 242 | 7.0 | 17.0 | 0.00 | 0.00 | 0.00 | 23 | 1015.6 |
| 20260504172542 | 69 | 243 | 5.0 | 11.0 | 0.00 | 0.00 | 0.00 | 24 | 1015.6 |
| 20260504172042 | 68 | 0 | 2.0 | 12.0 | 0.00 | 0.00 | 0.00 | 31 | 1015.7 |
| 20260504171557 | 68 | 226 | 3.0 | 12.0 | 0.00 | 0.00 | 0.00 | 29 | 1015.8 |
| 20260504171042 | 68 | 192 | 4.0 | 10.0 | 0.00 | 0.00 | 0.00 | 29 | 1015.7 |
| 20260504170544 | 67 | 170 | 4.0 | 10.0 | 0.00 | 0.00 | 0.00 | 31 | 1015.7 |
| 20260504151043 | 56 | 193 | 3.0 | 8.0 | 0.00 | 0.00 | 0.00 | 58 | 1016.9 |
| 20260504150542 | 55 | 244 | 3.0 | 10.0 | 0.00 | 0.00 | 0.00 | 60 | 1016.9 |
| 20260504141042 | 51 | 212 | 3.0 | 7.0 | 0.00 | 0.00 | 0.00 | 68 | 1016.7 |
| 20260504140542 | 51 | 196 | 3.0 | 6.0 | 0.00 | 0.00 | 0.00 | 69 | 1016.8 |
| 20260504140106 | 51 | 181 | 2.0 | 6.0 | 0.00 | 0.00 | 0.00 | 69 | 1016.9 |
| 20260504130543 | 48 | 89 | 2.0 | 4.0 | 0.00 | 0.00 | 0.00 | 71 | 1016.4 |
| 20260504120109 | 47 | 89 | 2.0 | 3.0 | 0.00 | 0.00 | 0.00 | 69 | 1015.6 |
| 20260504110547 | 48 | 89 | 1.0 | 3.0 | 0.00 | 0.00 | 0.00 | 66 | 1015.4 |
| 20260504100547 | 50 | 80 | 2.0 | 5.0 | 0.00 | 0.00 | 0.00 | 64 | 1015.7 |
| 20260504081549 | 53 | 235 | 1.0 | 9.0 | 0.00 | 0.00 | 0.00 | 57 | 1016.4 |
| 20260504081042 | 53 | 234 | 4.0 | 9.0 | 0.00 | 0.00 | 0.00 | 57 | 1016.3 |
| 20260504080542 | 53 | 172 | 1.0 | 7.0 | 0.00 | 0.00 | 0.00 | 57 | 1016.2 |
| 20260504050542 | 51 | 165 | 1.0 | 4.0 | 0.00 | 0.00 | 0.00 | 53 | 1017.1 |
| 20260504045542 | 52 | 165 | 2.0 | 4.0 | 0.00 | 0.00 | 0.00 | 51 | 1017.2 |
| 20260504045042 | 52 | 165 | 2.0 | 4.0 | 0.00 | 0.00 | 0.00 | 49 | 1017.1 |
| 20260504044550 | 53 | 165 | 2.0 | 5.0 | 0.00 | 0.00 | 0.00 | 48 | 1017.1 |
| 20260504044043 | 53 | 165 | 2.0 | 5.0 | 0.00 | 0.00 | 0.00 | 47 | 1017.1 |
| 20260504043543 | 53 | 165 | 3.0 | 5.0 | 0.00 | 0.00 | 0.00 | 46 | 1017.1 |
| 20260504043049 | 53 | 165 | 2.0 | 4.0 | 0.00 | 0.00 | 0.00 | 45 | 1017.1 |
| 20260504042542 | 54 | 165 | 2.0 | 4.0 | 0.00 | 0.00 | 0.00 | 45 | 1016.9 |
| 20260504042042 | 54 | 165 | 2.0 | 7.0 | 0.00 | 0.00 | 0.00 | 44 | 1016.9 |
| 20260504041547 | 54 | 188 | 2.0 | 7.0 | 0.00 | 0.00 | 0.00 | 44 | 1016.8 |
| 20260504041042 | 54 | 199 | 4.0 | 7.0 | 0.00 | 0.00 | 0.00 | 43 | 1016.8 |
| 20260504040544 | 54 | 198 | 3.0 | 9.0 | 0.00 | 0.00 | 0.00 | 42 | 1016.7 |
| 20260504040052 | 55 | 211 | 4.0 | 9.0 | 0.00 | 0.00 | 0.00 | 42 | 1016.7 |
| 20260504035542 | 55 | 244 | 4.0 | 9.0 | 0.00 | 0.00 | 0.00 | 40 | 1016.6 |
| 20260504035042 | 55 | 196 | 4.0 | 8.0 | 0.00 | 0.00 | 0.00 | 38 | 1016.7 |
| 20260504034549 | 55 | 198 | 3.0 | 7.0 | 0.00 | 0.00 | 0.00 | 37 | 1016.6 |
| 20260504034045 | 56 | 178 | 3.0 | 9.0 | 0.00 | 0.00 | 0.00 | 37 | 1016.6 |
| 20260504033543 | 56 | 186 | 4.0 | 9.0 | 0.00 | 0.00 | 0.00 | 37 | 1016.7 |
| 20260504033053 | 56 | 189 | 4.0 | 8.0 | 0.00 | 0.00 | 0.00 | 36 | 1016.6 |
| 20260504032543 | 56 | 182 | 3.0 | 8.0 | 0.00 | 0.00 | 0.00 | 36 | 1016.6 |
| 20260504032043 | 57 | 197 | 4.0 | 8.0 | 0.00 | 0.00 | 0.00 | 35 | 1016.5 |
| 20260504031558 | 57 | 202 | 3.0 | 8.0 | 0.00 | 0.00 | 0.00 | 35 | 1016.5 |
| 20260504031045 | 57 | 211 | 4.0 | 9.0 | 0.00 | 0.00 | 0.00 | 34 | 1016.4 |
| 20260504030543 | 57 | 203 | 3.0 | 11.0 | 0.00 | 0.00 | 0.00 | 33 | 1016.3 |
| 20260504030050 | 57 | 238 | 4.0 | 11.0 | 0.00 | 0.00 | 0.00 | 33 | 1016.3 |
| 20260504025542 | 58 | 161 | 4.0 | 8.0 | 0.00 | 0.00 | 0.00 | 32 | 1016.4 |
| 20260504025045 | 58 | 241 | 4.0 | 8.0 | 0.00 | 0.00 | 0.00 | 31 | 1016.2 |
| 20260504024558 | 58 | 188 | 3.0 | 8.0 | 0.00 | 0.00 | 0.00 | 30 | 1016.2 |
| 20260504024042 | 59 | 206 | 4.0 | 8.0 | 0.00 | 0.00 | 0.00 | 30 | 1016.1 |
| 20260504023545 | 59 | 174 | 3.0 | 9.0 | 0.00 | 0.00 | 0.00 | 29 | 1016.1 |
| 20260504023045 | 59 | 177 | 5.0 | 10.0 | 0.00 | 0.00 | 0.00 | 29 | 1016.0 |
| 20260504022542 | 59 | 168 | 5.0 | 10.0 | 0.00 | 0.00 | 0.00 | 29 | 1015.9 |
| 20260504022043 | 60 | 186 | 5.0 | 10.0 | 0.00 | 0.00 | 0.00 | 28 | 1015.8 |
| 20260504021553 | 60 | 194 | 6.0 | 10.0 | 0.00 | 0.00 | 0.00 | 28 | 1015.7 |
| 20260504021042 | 61 | 200 | 4.0 | 9.0 | 0.00 | 0.00 | 0.00 | 28 | 1015.6 |
| 20260504020542 | 61 | 202 | 5.0 | 9.0 | 0.00 | 0.00 | 0.00 | 27 | 1015.7 |
| 20260504020050 | 62 | 188 | 4.0 | 8.0 | 0.00 | 0.00 | 0.00 | 26 | 1015.5 |
| 20260504015543 | 62 | 199 | 4.0 | 10.0 | 0.00 | 0.00 | 0.00 | 26 | 1015.4 |
| 20260504015043 | 63 | 200 | 6.0 | 10.0 | 0.00 | 0.00 | 0.00 | 26 | 1015.4 |
| 20260504014549 | 63 | 195 | 5.0 | 10.0 | 0.00 | 0.00 | 0.00 | 26 | 1015.4 |
| 20260504014042 | 64 | 205 | 5.0 | 10.0 | 0.00 | 0.00 | 0.00 | 26 | 1015.3 |
| 20260504013542 | 64 | 170 | 5.0 | 12.0 | 0.00 | 0.00 | 0.00 | 25 | 1015.3 |
| 20260504013058 | 64 | 240 | 6.0 | 12.0 | 0.00 | 0.00 | 0.00 | 25 | 1015.3 |
| 20260504012544 | 65 | 191 | 7.0 | 15.0 | 0.00 | 0.00 | 0.00 | 25 | 1015.3 |
| 20260504012044 | 65 | 200 | 6.0 | 15.0 | 0.00 | 0.00 | 0.00 | 25 | 1015.3 |
| 20260504011552 | 65 | 202 | 8.0 | 15.0 | 0.00 | 0.00 | 0.00 | 24 | 1015.4 |
| 20260504011042 | 66 | 230 | 6.0 | 15.0 | 0.00 | 0.00 | 0.00 | 24 | 1015.5 |
| 20260504010541 | 66 | 202 | 7.0 | 17.0 | 0.00 | 0.00 | 0.00 | 24 | 1015.5 |
| 20260504010055 | 67 | 249 | 8.0 | 17.0 | 0.00 | 0.00 | 0.00 | 24 | 1015.7 |
| 20260504005540 | 67 | 196 | 8.0 | 14.0 | 0.00 | 0.00 | 0.00 | 23 | 1015.7 |
| 20260504005043 | 68 | 200 | 5.0 | 14.0 | 0.00 | 0.00 | 0.00 | 23 | 1015.7 |
| 20260504004603 | 68 | 234 | 7.0 | 14.0 | 0.00 | 0.00 | 0.00 | 22 | 1015.7 |
| 20260504004043 | 69 | 220 | 5.0 | 10.0 | 0.00 | 0.00 | 0.00 | 22 | 1015.7 |
| 20260504003544 | 69 | 188 | 5.0 | 10.0 | 0.00 | 0.00 | 0.00 | 22 | 1015.8 |
| 20260504003054 | 69 | 198 | 4.0 | 10.0 | 0.00 | 0.00 | 0.00 | 22 | 1015.8 |
| 20260504002542 | 69 | 225 | 4.0 | 9.0 | 0.00 | 0.00 | 0.00 | 22 | 1015.9 |
| 20260504002045 | 69 | 172 | 4.0 | 14.0 | 0.00 | 0.00 | 0.00 | 22 | 1015.8 |
| 20260504001557 | 69 | 176 | 6.0 | 16.0 | 0.00 | 0.00 | 0.00 | 22 | 1016.0 |
| 20260504001043 | 69 | 196 | 6.0 | 19.0 | 0.00 | 0.00 | 0.00 | 22 | 1016.0 |
| 20260504000543 | 70 | 170 | 7.0 | 19.0 | 0.00 | 0.00 | 0.00 | 21 | 1016.0 |
| 20260504000053 | 70 | 140 | 7.0 | 17.0 | 0.00 | 0.00 | 0.00 | 21 | 1016.1 |
| 20260503235543 | 70 | 205 | 6.0 | 17.0 | 0.00 | 0.00 | 0.00 | 21 | 1016.1 |
| 20260503235046 | 70 | 210 | 6.0 | 17.0 | 0.00 | 0.00 | 0.00 | 21 | 1016.2 |
| 20260503234550 | 71 | 182 | 6.0 | 16.0 | 0.00 | 0.00 | 0.00 | 21 | 1016.0 |
| 20260503234043 | 71 | 224 | 6.0 | 17.0 | 0.00 | 0.00 | 0.00 | 21 | 1016.2 |
| 20260503233542 | 71 | 267 | 8.0 | 17.0 | 0.00 | 0.00 | 0.00 | 20 | 1016.2 |
| 20260503233050 | 72 | 226 | 6.0 | 14.0 | 0.00 | 0.00 | 0.00 | 20 | 1016.3 |
| 20260503232542 | 72 | 191 | 5.0 | 14.0 | 0.00 | 0.00 | 0.00 | 20 | 1016.3 |
| 20260503232042 | 72 | 232 | 5.0 | 14.0 | 0.00 | 0.00 | 0.00 | 20 | 1016.4 |